ARIANE 42P DEB

基本信息
目录编号:
44509
目录名称:
ARIANE 42P DEB
国际标识:
1992-052G
轨道中心:
EARTH
物体状态:
在轨
发射日期:
1992-08-10 UTC
轨道信息
数据来源: 国际轨道数据
星历时间: 2026-07-13T17:13:51+0800
半长轴: 7696.838km
偏心率: 0.008811
轨道倾角: 66.082°
近地点辐角: 270.987°
升交点赤经: 231.065°
平近点角: 88.105°
近地点: 1250.884km
远地点: 1386.518km
周期: 112.003分钟
每日圈数: 12.856841
详细信息
发射场:
FRGUI
轨道高度:
LEO
数据来源:
AOE Integration Group
参考系:
TEME
时间系统:
UTC
历元类型:
SGP4
2D轨道图
3D轨道图
轨道高度分析图
轨道倾角分析图
轨道综合分析图
查看轨道综合分析图